Home   Weather   Toronto   Past weeks
Flag for Canada

Past Weather in Toronto, Ontario, Canada — Yesterday and Last 2 Weeks

Now
45 °F

Passing clouds.


Feels Like: 41 °F
Forecast: 54 / 39 °F
Wind: 6 mph from East

Location: Toronto Pearson International Airport

Current Time: Apr 24, 2019 at 10:35:51 pm

Latest Report: Apr 24, 2019 at 10:00 pm


Visibility: 15 mi

Pressure: 29.94 "Hg

Humidity: 71%

Dew Point: 36 °F

Location of TorontoLocation

Past Weather in Toronto — Graph

°F

Toronto Temperature Yesterday

Maximum temperature yesterday: 59 °F (at 5:00 pm)
Minimum temperature yesterday: 43 °F (at 11:00 pm)
Average temperature yesterday: 50 °F

High & Low Weather Summary for the Past Weeks

 TemperatureHumidityPressure
High72 °F (Apr 18, 5:00 pm)94% (Apr 19, 3:00 am)30.29 "Hg (Apr 19, 3:00 am)
Low30 °F (Apr 11, 7:00 am)28% (Apr 17, 4:00 pm)29.32 "Hg (Apr 15, 12:00 am)
Average45 °F72%29.88 "Hg
* Reported Apr 9 9:00 pm — Apr 24 9:00 pm, Toronto. Weather by CustomWeather, © 2019

Note: Actual official high and low records may vary slightly from our data, if they occured in-between our weather recording intervals... More about our weather records

Advertising

Toronto Weather History for the Previous 24 Hours

Scroll right to see more
 ConditionsComfort  
Time TempWeatherWind HumidityBarometerVisibility
9:00 pm
Wed, Apr 24
46 °FPassing clouds.7 mph66%29.93 "Hg15 mi
8:00 pm50 °FPartly sunny.7 mph58%29.92 "Hg15 mi
7:00 pm54 °FBroken clouds.5 mph51%29.91 "Hg15 mi
6:00 pm55 °FPartly sunny.6 mph51%29.91 "Hg15 mi
5:00 pm55 °FPartly sunny.9 mph51%29.91 "Hg15 mi
4:00 pm55 °FScattered clouds.9 mph55%29.91 "Hg15 mi
3:00 pm54 °FScattered clouds.9 mph58%29.93 "Hg15 mi
2:00 pm52 °FPartly sunny.15 mph58%29.93 "Hg15 mi
1:00 pm50 °FPartly sunny.14 mph62%29.95 "Hg15 mi
12:00 pm46 °FPartly sunny.14 mph62%29.96 "Hg15 mi
11:00 am45 °FPartly sunny.17 mph66%29.96 "Hg15 mi
10:00 am41 °FPartly sunny.17 mph70%29.96 "Hg15 mi
9:00 am41 °FOvercast.18 mph70%29.94 "Hg15 mi
8:00 am39 °FOvercast.17 mph70%29.93 "Hg15 mi
7:00 am39 °FOvercast.16 mph70%29.91 "Hg15 mi
6:00 am39 °FOvercast.16 mph70%29.89 "Hg15 mi
5:00 am39 °FPassing clouds.17 mph70%29.88 "Hg15 mi
4:00 am41 °FPassing clouds.23 mph70%29.87 "Hg15 mi
3:00 am41 °FPassing clouds.14 mph70%29.86 "Hg15 mi
2:00 am43 °FPassing clouds.17 mph71%29.85 "Hg15 mi
1:00 am43 °FMostly cloudy.21 mph71%29.84 "Hg15 mi
12:00 am43 °FMostly cloudy.16 mph76%29.83 "Hg15 mi
11:00 pm
Tue, Apr 23
43 °FMostly cloudy.22 mph76%29.83 "Hg15 mi
10:00 pm45 °FMostly cloudy.20 mph71%29.82 "Hg15 mi
Weather by CustomWeather, © 2019

See weather overview